TPC36 KLGU-KCPR

Flight info

Callsign TPC36
Flight time 1h 47m
Altitude 13000
Route ORNEY1 LHO ORNEY CHOMP
Aircraft C208/L-SDFGR/C

Departure

Time 2026-05-07 11:44
Airport Logan-Cache Airport (KLGU)

Arrival

Time 2026-05-07 13:32
Airport Casper-Natrona County International Airport (KCPR)
Time Latitude Longitude Altitude Speed Heading
2026-05-07 11:23 41.78151 -111.85208 4458 ft 0 kts 152°
2026-05-07 11:35 41.78135 -111.85176 4457 ft 4 kts 111°
2026-05-07 11:36 41.78129 -111.85120 4456 ft 7 kts 97°
2026-05-07 11:36 41.78124 -111.85034 4455 ft 4 kts 90°
2026-05-07 11:42 41.78124 -111.85033 4455 ft 0 kts 89°
2026-05-07 11:42 41.78124 -111.85014 4455 ft 8 kts 92°
2026-05-07 11:42 41.78131 -111.84928 4456 ft 9 kts 32°
2026-05-07 11:43 41.78148 -111.84921 4456 ft 0 kts
2026-05-07 11:43 41.78297 -111.84913 4455 ft 45 kts
2026-05-07 11:43 41.78753 -111.84884 4453 ft 83 kts
2026-05-07 11:44 41.79344 -111.84866 4638 ft 83 kts 360°
2026-05-07 11:44 41.79915 -111.84922 4793 ft 90 kts 352°
2026-05-07 11:44 41.80572 -111.85091 4935 ft 101 kts 349°
2026-05-07 11:44 41.81191 -111.85475 5175 ft 101 kts 322°
2026-05-07 11:45 41.81615 -111.86224 5412 ft 102 kts 291°
2026-05-07 11:45 41.81726 -111.87171 5601 ft 107 kts 277°
2026-05-07 11:45 41.81819 -111.88200 5755 ft 115 kts 274°
2026-05-07 11:45 41.81773 -111.89309 5923 ft 123 kts 258°
2026-05-07 11:46 41.81572 -111.90443 6096 ft 128 kts 255°
2026-05-07 11:46 41.81356 -111.91623 6272 ft 132 kts 252°
2026-05-07 11:46 41.81110 -111.92796 6523 ft 128 kts 250°
2026-05-07 11:46 41.80868 -111.93887 6851 ft 116 kts 251°
2026-05-07 11:47 41.80642 -111.94895 7128 ft 110 kts 251°
2026-05-07 11:47 41.80424 -111.95857 7395 ft 105 kts 251°
2026-05-07 11:47 41.80216 -111.96769 7662 ft 99 kts 252°
2026-05-07 11:47 41.80011 -111.97672 7835 ft 104 kts 252°
2026-05-07 11:48 41.79871 -111.98642 7998 ft 111 kts 276°
2026-05-07 11:48 41.80265 -111.99545 8173 ft 122 kts 315°
2026-05-07 11:48 41.81110 -111.99833 8346 ft 137 kts
2026-05-07 11:48 41.82009 -111.99305 8542 ft 144 kts 20°
2026-05-07 11:49 41.82900 -111.98722 8781 ft 142 kts 18°
2026-05-07 11:49 41.83794 -111.98144 9015 ft 143 kts 18°
2026-05-07 11:49 41.84689 -111.97559 9245 ft 144 kts 20°
2026-05-07 11:49 41.85579 -111.96950 9478 ft 144 kts 18°
2026-05-07 11:50 41.86478 -111.96357 9713 ft 144 kts 18°
2026-05-07 11:50 41.87381 -111.95777 9943 ft 144 kts 17°
2026-05-07 11:50 41.88264 -111.95215 10182 ft 140 kts 16°
2026-05-07 11:50 41.89134 -111.94656 10416 ft 137 kts 16°
2026-05-07 11:51 41.89985 -111.94093 10638 ft 139 kts 25°
2026-05-07 11:51 41.90667 -111.93142 10862 ft 137 kts 25°
2026-05-07 11:51 41.91499 -111.92788 11103 ft 123 kts
2026-05-07 11:51 41.92321 -111.92455 11334 ft 122 kts
2026-05-07 11:52 41.93121 -111.92113 11576 ft 119 kts
2026-05-07 11:52 41.93895 -111.91768 11810 ft 115 kts
2026-05-07 11:52 41.94645 -111.91424 12018 ft 115 kts
2026-05-07 11:52 41.95405 -111.91073 12193 ft 116 kts
2026-05-07 11:53 41.96175 -111.90716 12371 ft 117 kts
2026-05-07 11:53 41.96951 -111.90354 12557 ft 118 kts
2026-05-07 11:53 41.97729 -111.89985 12736 ft 119 kts
2026-05-07 11:53 41.98510 -111.89608 12926 ft 119 kts
2026-05-07 11:54 41.99319 -111.89223 12988 ft 130 kts
2026-05-07 11:54 42.00215 -111.88815 12989 ft 142 kts
2026-05-07 11:54 42.01089 -111.88018 12994 ft 173 kts 46°
2026-05-07 11:54 42.01412 -111.86360 12995 ft 193 kts 82°
2026-05-07 11:55 42.01456 -111.84548 12986 ft 194 kts 82°
2026-05-07 11:55 42.01500 -111.82736 12982 ft 194 kts 83°
2026-05-07 11:55 42.01510 -111.80914 12983 ft 196 kts 89°
2026-05-07 11:55 42.01275 -111.79122 12987 ft 199 kts 103°
2026-05-07 11:56 42.00865 -111.77338 12997 ft 201 kts 103°
2026-05-07 11:56 42.00435 -111.75540 13000 ft 203 kts 105°
2026-05-07 11:56 42.00097 -111.73704 12992 ft 200 kts 87°
2026-05-07 11:56 42.00249 -111.71889 13005 ft 194 kts 67°
2026-05-07 11:57 42.00572 -111.70120 13003 ft 195 kts 68°
2026-05-07 11:57 42.00843 -111.68336 13008 ft 196 kts 70°
2026-05-07 11:57 42.01104 -111.66521 13005 ft 198 kts 70°
2026-05-07 11:57 42.01362 -111.64699 12983 ft 196 kts 70°
2026-05-07 11:58 42.01624 -111.62909 12991 ft 197 kts 70°
2026-05-07 11:58 42.01877 -111.61111 12983 ft 194 kts 70°
2026-05-07 11:58 42.02133 -111.59342 12976 ft 192 kts 69°
2026-05-07 11:58 42.02391 -111.57570 12980 ft 195 kts 70°
2026-05-07 11:59 42.02643 -111.55786 12961 ft 192 kts 70°
2026-05-07 11:59 42.02891 -111.54053 12960 ft 191 kts 69°
2026-05-07 11:59 42.03147 -111.52279 12948 ft 191 kts 70°
2026-05-07 11:59 42.03395 -111.50528 12947 ft 191 kts 70°
2026-05-07 12:00 42.03643 -111.48792 12950 ft 186 kts 69°
2026-05-07 12:00 42.03883 -111.47105 12957 ft 181 kts 69°
2026-05-07 12:00 42.04124 -111.45438 12959 ft 187 kts 69°
2026-05-07 12:00 42.04370 -111.43708 12963 ft 189 kts 69°
2026-05-07 12:01 42.04616 -111.41974 12968 ft 188 kts 69°
2026-05-07 12:01 42.04855 -111.40235 12954 ft 189 kts 69°
2026-05-07 12:01 42.05101 -111.38499 12951 ft 190 kts 69°
2026-05-07 12:01 42.05351 -111.36749 12953 ft 191 kts 70°
2026-05-07 12:02 42.05598 -111.34987 12944 ft 192 kts 70°
2026-05-07 12:02 42.05847 -111.33224 12952 ft 192 kts 70°
2026-05-07 12:02 42.06095 -111.31455 12954 ft 192 kts 70°
2026-05-07 12:02 42.06343 -111.29692 12954 ft 192 kts 70°
2026-05-07 12:03 42.06591 -111.27930 12951 ft 192 kts 70°
2026-05-07 12:03 42.06839 -111.26164 12937 ft 192 kts 70°
2026-05-07 12:03 42.07086 -111.24400 12948 ft 193 kts 70°
2026-05-07 12:03 42.07336 -111.22619 12946 ft 193 kts 70°
2026-05-07 12:04 42.07583 -111.20838 12944 ft 193 kts 70°
2026-05-07 12:04 42.07831 -111.19070 12939 ft 193 kts 70°
2026-05-07 12:04 42.08078 -111.17294 12941 ft 193 kts 70°
2026-05-07 12:04 42.08326 -111.15515 12942 ft 194 kts 70°
2026-05-07 12:05 42.08574 -111.13736 12960 ft 194 kts 70°
2026-05-07 12:05 42.08822 -111.11939 12944 ft 194 kts 70°
2026-05-07 12:05 42.09064 -111.10187 12947 ft 193 kts 70°
2026-05-07 12:05 42.09312 -111.08406 12946 ft 193 kts 70°
2026-05-07 12:06 42.09559 -111.06623 12946 ft 194 kts 70°
2026-05-07 12:06 42.09805 -111.04836 12943 ft 193 kts 70°
2026-05-07 12:06 42.10052 -111.03055 12939 ft 193 kts 70°
2026-05-07 12:06 42.10296 -111.01286 12953 ft 190 kts 70°
2026-05-07 12:07 42.10537 -110.99553 12995 ft 188 kts 70°
2026-05-07 12:07 42.10777 -110.97824 13004 ft 187 kts 70°
2026-05-07 12:07 42.11015 -110.96095 13003 ft 188 kts 70°
2026-05-07 12:07 42.11250 -110.94376 13005 ft 189 kts 70°
2026-05-07 12:08 42.11491 -110.92620 13002 ft 191 kts 70°
2026-05-07 12:08 42.11728 -110.90859 13005 ft 190 kts 70°
2026-05-07 12:08 42.11969 -110.89105 13011 ft 191 kts 70°
2026-05-07 12:08 42.12211 -110.87340 13009 ft 191 kts 70°
2026-05-07 12:09 42.12452 -110.85578 13014 ft 192 kts 70°
2026-05-07 12:09 42.12692 -110.83821 13019 ft 194 kts 70°
2026-05-07 12:09 42.12857 -110.82607 13008 ft 196 kts 71°
2026-05-07 12:09 42.13175 -110.80238 13030 ft 195 kts 70°
2026-05-07 12:10 42.13424 -110.78431 13008 ft 196 kts 70°
2026-05-07 12:10 42.13664 -110.76640 13004 ft 193 kts 71°
2026-05-07 12:10 42.13908 -110.74864 13002 ft 193 kts 70°
2026-05-07 12:10 42.14072 -110.73660 13008 ft 193 kts 71°
2026-05-07 12:11 42.14310 -110.71897 13002 ft 194 kts 71°
2026-05-07 12:11 42.14547 -110.70120 13005 ft 192 kts 71°
2026-05-07 12:11 42.14790 -110.68349 13002 ft 192 kts 71°
2026-05-07 12:11 42.15031 -110.66575 13002 ft 194 kts 71°
2026-05-07 12:12 42.15268 -110.64787 12997 ft 193 kts 71°
2026-05-07 12:12 42.15507 -110.63010 13004 ft 193 kts 71°
2026-05-07 12:12 42.15746 -110.61234 13018 ft 193 kts 71°
2026-05-07 12:12 42.15984 -110.59452 13014 ft 195 kts 71°
2026-05-07 12:13 42.16223 -110.57654 12998 ft 194 kts 71°
2026-05-07 12:13 42.16462 -110.55870 13007 ft 193 kts 71°
2026-05-07 12:13 42.16699 -110.54106 13003 ft 193 kts 71°
2026-05-07 12:13 42.16938 -110.52322 13006 ft 194 kts 71°
2026-05-07 12:14 42.17178 -110.50528 13007 ft 194 kts 71°
2026-05-07 12:14 42.17414 -110.48736 13005 ft 195 kts 71°
2026-05-07 12:14 42.17651 -110.46945 13001 ft 194 kts 71°
2026-05-07 12:14 42.17888 -110.45152 12999 ft 194 kts 70°
2026-05-07 12:15 42.18128 -110.43346 12994 ft 196 kts 70°
2026-05-07 12:15 42.18366 -110.41543 12992 ft 194 kts 70°
2026-05-07 12:15 42.18600 -110.39762 12980 ft 191 kts 70°
2026-05-07 12:15 42.18834 -110.38012 12981 ft 189 kts 70°
2026-05-07 12:16 42.19068 -110.36267 12987 ft 189 kts 70°
2026-05-07 12:16 42.19298 -110.34528 12988 ft 188 kts 70°
2026-05-07 12:16 42.19527 -110.32789 12990 ft 189 kts 70°
2026-05-07 12:16 42.19756 -110.31039 12992 ft 190 kts 70°
2026-05-07 12:17 42.19987 -110.29274 12996 ft 192 kts 70°
2026-05-07 12:17 42.20219 -110.27501 12999 ft 192 kts 70°
2026-05-07 12:17 42.20450 -110.25726 13001 ft 192 kts 70°
2026-05-07 12:17 42.20679 -110.23977 12991 ft 192 kts 70°
2026-05-07 12:18 42.20908 -110.22209 12994 ft 191 kts 70°
2026-05-07 12:18 42.21140 -110.20437 12998 ft 192 kts 70°
2026-05-07 12:18 42.21372 -110.18655 12992 ft 193 kts 70°
2026-05-07 12:18 42.21603 -110.16876 12991 ft 192 kts 70°
2026-05-07 12:19 42.21835 -110.15100 12995 ft 193 kts 70°
2026-05-07 12:19 42.22066 -110.13317 12992 ft 192 kts 71°
2026-05-07 12:19 42.22296 -110.11547 12997 ft 192 kts 72°
2026-05-07 12:19 42.22525 -110.09765 12992 ft 193 kts 72°
2026-05-07 12:20 42.22746 -110.08055 12991 ft 192 kts 72°
2026-05-07 12:20 42.22975 -110.06291 12993 ft 191 kts 71°
2026-05-07 12:20 42.23204 -110.04522 12991 ft 191 kts 72°
2026-05-07 12:20 42.23431 -110.02762 12989 ft 191 kts 72°
2026-05-07 12:21 42.23658 -110.01002 12992 ft 190 kts 71°
2026-05-07 12:21 42.23883 -109.99242 12994 ft 191 kts 72°
2026-05-07 12:21 42.24109 -109.97473 12994 ft 191 kts 72°
2026-05-07 12:21 42.24335 -109.95709 12995 ft 191 kts 72°
2026-05-07 12:22 42.24562 -109.93943 12990 ft 191 kts 72°
2026-05-07 12:22 42.24789 -109.92177 12991 ft 191 kts 72°
2026-05-07 12:22 42.25011 -109.90438 12992 ft 191 kts 72°
2026-05-07 12:22 42.25236 -109.88670 12993 ft 191 kts 72°
2026-05-07 12:23 42.25462 -109.86904 12993 ft 191 kts 72°
2026-05-07 12:23 42.25686 -109.85136 12994 ft 191 kts 72°
2026-05-07 12:23 42.25911 -109.83370 12994 ft 191 kts 72°
2026-05-07 12:23 42.26135 -109.81600 12994 ft 191 kts 72°
2026-05-07 12:24 42.26359 -109.79831 13009 ft 191 kts 72°
2026-05-07 12:24 42.26584 -109.78060 13008 ft 192 kts 73°
2026-05-07 12:24 42.26805 -109.76298 13007 ft 192 kts 73°
2026-05-07 12:24 42.27028 -109.74528 13007 ft 191 kts 72°
2026-05-07 12:25 42.27252 -109.72761 12999 ft 191 kts 73°
2026-05-07 12:25 42.27475 -109.70985 13006 ft 191 kts 73°
2026-05-07 12:25 42.27697 -109.69215 13006 ft 191 kts 73°
2026-05-07 12:25 42.27921 -109.67448 13004 ft 191 kts 72°
2026-05-07 12:26 42.28142 -109.65687 13009 ft 190 kts 73°
2026-05-07 12:26 42.28364 -109.63922 13000 ft 190 kts 73°
2026-05-07 12:26 42.28585 -109.62158 13006 ft 190 kts 73°
2026-05-07 12:26 42.28804 -109.60392 13006 ft 191 kts 73°
2026-05-07 12:27 42.29025 -109.58626 13006 ft 191 kts 73°
2026-05-07 12:27 42.29245 -109.56859 13009 ft 191 kts 73°
2026-05-07 12:27 42.29465 -109.55095 13009 ft 191 kts 72°
2026-05-07 12:27 42.29681 -109.53352 13009 ft 191 kts 72°
2026-05-07 12:28 42.29901 -109.51585 13015 ft 191 kts 72°
2026-05-07 12:28 42.30119 -109.49813 13012 ft 191 kts 73°
2026-05-07 12:28 42.30338 -109.48050 13023 ft 191 kts 73°
2026-05-07 12:28 42.30556 -109.46282 13024 ft 191 kts 73°
2026-05-07 12:29 42.30777 -109.44506 13026 ft 192 kts 73°
2026-05-07 12:29 42.30998 -109.42725 13019 ft 193 kts 73°
2026-05-07 12:29 42.31218 -109.40929 13025 ft 193 kts 73°
2026-05-07 12:29 42.31438 -109.39139 13036 ft 193 kts 73°
2026-05-07 12:30 42.31657 -109.37343 13034 ft 194 kts 73°
2026-05-07 12:30 42.31877 -109.35547 13039 ft 194 kts 73°
2026-05-07 12:30 42.32098 -109.33746 13040 ft 194 kts 73°
2026-05-07 12:30 42.32320 -109.31942 13040 ft 195 kts 73°
2026-05-07 12:31 42.32541 -109.30137 13041 ft 195 kts 73°
2026-05-07 12:31 42.32760 -109.28331 13039 ft 195 kts 73°
2026-05-07 12:31 42.32980 -109.26525 13038 ft 195 kts 73°
2026-05-07 12:31 42.33197 -109.24740 13040 ft 195 kts 73°
2026-05-07 12:32 42.33417 -109.22933 13043 ft 195 kts 73°
2026-05-07 12:32 42.33637 -109.21119 13042 ft 195 kts 73°
2026-05-07 12:32 42.33857 -109.19309 13042 ft 195 kts 73°
2026-05-07 12:32 42.34074 -109.17503 13041 ft 195 kts 73°
2026-05-07 12:33 42.34511 -109.13887 13040 ft 195 kts 73°
2026-05-07 12:33 42.34729 -109.12081 13042 ft 195 kts 73°
2026-05-07 12:33 42.34946 -109.10266 13039 ft 194 kts 74°
2026-05-07 12:34 42.35161 -109.08472 13042 ft 193 kts 73°
2026-05-07 12:34 42.35377 -109.06687 13043 ft 193 kts 73°
2026-05-07 12:34 42.35592 -109.04890 13043 ft 194 kts 73°
2026-05-07 12:34 42.35807 -109.03092 13039 ft 194 kts 73°
2026-05-07 12:35 42.36022 -109.01289 13033 ft 194 kts 74°
2026-05-07 12:35 42.36238 -108.99483 13033 ft 194 kts 74°
2026-05-07 12:35 42.36451 -108.97682 13029 ft 194 kts 74°
2026-05-07 12:35 42.36663 -108.95906 13030 ft 194 kts 73°
2026-05-07 12:36 42.36878 -108.94104 13030 ft 194 kts 73°
2026-05-07 12:36 42.37091 -108.92309 13031 ft 193 kts 73°
2026-05-07 12:36 42.37304 -108.90513 13027 ft 194 kts 73°
2026-05-07 12:36 42.37517 -108.88718 13031 ft 194 kts 74°
2026-05-07 12:37 42.37729 -108.86919 13030 ft 194 kts 73°
2026-05-07 12:37 42.37941 -108.85120 13029 ft 193 kts 73°
2026-05-07 12:37 42.38154 -108.83320 13009 ft 194 kts 73°
2026-05-07 12:37 42.38366 -108.81522 13008 ft 194 kts 73°
2026-05-07 12:38 42.38577 -108.79720 13006 ft 194 kts 74°
2026-05-07 12:38 42.38788 -108.77922 13005 ft 194 kts 73°
2026-05-07 12:38 42.38995 -108.76123 13008 ft 191 kts 74°
2026-05-07 12:38 42.39200 -108.74361 13008 ft 189 kts 73°
2026-05-07 12:39 42.39407 -108.72610 13006 ft 187 kts 74°
2026-05-07 12:39 42.39609 -108.70890 12986 ft 187 kts 74°
2026-05-07 12:39 42.39812 -108.69157 12983 ft 186 kts 73°
2026-05-07 12:39 42.40014 -108.67432 12980 ft 185 kts 73°
2026-05-07 12:40 42.40214 -108.65715 12977 ft 185 kts 74°
2026-05-07 12:40 42.40414 -108.63990 12976 ft 185 kts 74°
2026-05-07 12:40 42.40613 -108.62271 12975 ft 185 kts 74°
2026-05-07 12:40 42.40812 -108.60554 12976 ft 185 kts 74°
2026-05-07 12:41 42.41009 -108.58837 12973 ft 184 kts 74°
2026-05-07 12:41 42.41208 -108.57132 12959 ft 183 kts 74°
2026-05-07 12:41 42.41406 -108.55425 12959 ft 184 kts 74°
2026-05-07 12:41 42.41602 -108.53721 12958 ft 184 kts 74°
2026-05-07 12:42 42.41796 -108.52030 12958 ft 184 kts 74°
2026-05-07 12:42 42.41990 -108.50327 12954 ft 182 kts 74°
2026-05-07 12:42 42.42183 -108.48651 12957 ft 179 kts 73°
2026-05-07 12:42 42.42377 -108.46986 12961 ft 180 kts 73°
2026-05-07 12:43 42.42570 -108.45301 12965 ft 182 kts 74°
2026-05-07 12:43 42.42762 -108.43600 12965 ft 183 kts 74°
2026-05-07 12:43 42.42956 -108.41901 12965 ft 184 kts 74°
2026-05-07 12:43 42.43151 -108.40184 12969 ft 185 kts 74°
2026-05-07 12:44 42.43347 -108.38457 12967 ft 186 kts 74°
2026-05-07 12:44 42.43544 -108.36719 12966 ft 186 kts 74°
2026-05-07 12:44 42.43741 -108.34990 12967 ft 186 kts 74°
2026-05-07 12:44 42.43936 -108.33263 12966 ft 185 kts 74°
2026-05-07 12:45 42.44132 -108.31543 12965 ft 185 kts 74°
2026-05-07 12:45 42.44324 -108.29845 12964 ft 184 kts 74°
2026-05-07 12:45 42.44517 -108.28129 12965 ft 184 kts 74°
2026-05-07 12:45 42.44711 -108.26415 12964 ft 184 kts 74°
2026-05-07 12:46 42.44903 -108.24707 12963 ft 183 kts 74°
2026-05-07 12:46 42.45094 -108.22997 12962 ft 184 kts 74°
2026-05-07 12:46 42.45289 -108.21278 12963 ft 185 kts 74°
2026-05-07 12:46 42.45481 -108.19558 12964 ft 185 kts 74°
2026-05-07 12:47 42.45672 -108.17832 12966 ft 185 kts 74°
2026-05-07 12:47 42.45865 -108.16106 12969 ft 185 kts 74°
2026-05-07 12:47 42.46060 -108.14375 12972 ft 186 kts 74°
2026-05-07 12:47 42.46252 -108.12648 12971 ft 186 kts 74°
2026-05-07 12:48 42.46445 -108.10916 12972 ft 186 kts 74°
2026-05-07 12:48 42.46637 -108.09181 12972 ft 186 kts 74°
2026-05-07 12:48 42.46829 -108.07447 12972 ft 186 kts 74°
2026-05-07 12:48 42.47021 -108.05721 12973 ft 186 kts 74°
2026-05-07 12:49 42.47213 -108.03993 12970 ft 186 kts 74°
2026-05-07 12:49 42.47404 -108.02259 12969 ft 186 kts 74°
2026-05-07 12:49 42.47595 -108.00525 12974 ft 185 kts 74°
2026-05-07 12:49 42.47786 -107.98801 12973 ft 185 kts 74°
2026-05-07 12:50 42.47976 -107.97075 12984 ft 185 kts 74°
2026-05-07 12:50 42.48165 -107.95353 12983 ft 185 kts 74°
2026-05-07 12:50 42.48354 -107.93630 12985 ft 185 kts 74°
2026-05-07 12:50 42.48543 -107.91903 12983 ft 185 kts 75°
2026-05-07 12:51 42.48731 -107.90176 12984 ft 185 kts 74°
2026-05-07 12:51 42.48918 -107.88471 12983 ft 185 kts 74°
2026-05-07 12:51 42.49106 -107.86746 12984 ft 185 kts 74°
2026-05-07 12:51 42.49295 -107.85026 12983 ft 185 kts 75°
2026-05-07 12:52 42.49481 -107.83303 12982 ft 184 kts 75°
2026-05-07 12:52 42.49668 -107.81587 12982 ft 184 kts 74°
2026-05-07 12:52 42.49854 -107.79872 12982 ft 184 kts 74°
2026-05-07 12:52 42.50040 -107.78154 12982 ft 184 kts 74°
2026-05-07 12:53 42.50228 -107.76430 12983 ft 185 kts 74°
2026-05-07 12:53 42.50413 -107.74701 12984 ft 186 kts 74°
2026-05-07 12:53 42.50601 -107.72960 12977 ft 188 kts 74°
2026-05-07 12:53 42.50791 -107.71206 12975 ft 188 kts 74°
2026-05-07 12:54 42.50978 -107.69455 12976 ft 188 kts 74°
2026-05-07 12:54 42.51167 -107.67694 12977 ft 189 kts 74°
2026-05-07 12:54 42.51355 -107.65937 12978 ft 189 kts 74°
2026-05-07 12:54 42.51542 -107.64188 12981 ft 189 kts 74°
2026-05-07 12:55 42.51731 -107.62422 12979 ft 189 kts 74°
2026-05-07 12:55 42.51919 -107.60661 12984 ft 190 kts 75°
2026-05-07 12:55 42.52108 -107.58883 12962 ft 190 kts 74°
2026-05-07 12:55 42.52296 -107.57111 12968 ft 190 kts 74°
2026-05-07 12:56 42.52484 -107.55338 12971 ft 190 kts 74°
2026-05-07 12:56 42.52674 -107.53556 12971 ft 192 kts 75°
2026-05-07 12:56 42.52802 -107.52364 12972 ft 194 kts 75°
2026-05-07 12:56 42.52989 -107.50561 12968 ft 192 kts 75°
2026-05-07 12:57 42.53179 -107.48764 12966 ft 193 kts 75°
2026-05-07 12:57 42.53369 -107.46965 12967 ft 192 kts 74°
2026-05-07 12:57 42.53558 -107.45176 12949 ft 191 kts 75°
2026-05-07 12:57 42.53747 -107.43388 12947 ft 191 kts 75°
2026-05-07 12:58 42.53934 -107.41607 12949 ft 191 kts 75°
2026-05-07 12:58 42.54120 -107.39824 12943 ft 190 kts 74°
2026-05-07 12:58 42.54310 -107.38046 12951 ft 190 kts 75°
2026-05-07 12:58 42.54495 -107.36273 12952 ft 190 kts 75°
2026-05-07 12:59 42.54681 -107.34490 12951 ft 190 kts 75°
2026-05-07 12:59 42.54865 -107.32715 12935 ft 190 kts 75°
2026-05-07 12:59 42.55047 -107.30965 12937 ft 190 kts 75°
2026-05-07 12:59 42.55232 -107.29187 12938 ft 191 kts 75°
2026-05-07 13:00 42.55417 -107.27406 12942 ft 191 kts 75°
2026-05-07 13:00 42.55601 -107.25613 12941 ft 192 kts 75°
2026-05-07 13:00 42.55785 -107.23821 12942 ft 192 kts 75°
2026-05-07 13:00 42.55971 -107.22028 12941 ft 192 kts 75°
2026-05-07 13:01 42.56156 -107.20243 12941 ft 191 kts 75°
2026-05-07 13:01 42.56339 -107.18459 12926 ft 191 kts 75°
2026-05-07 13:01 42.56523 -107.16680 12928 ft 190 kts 75°
2026-05-07 13:01 42.56706 -107.14904 12922 ft 190 kts 75°
2026-05-07 13:02 42.56886 -107.13135 12921 ft 189 kts 75°
2026-05-07 13:02 42.57068 -107.11369 12920 ft 189 kts 75°
2026-05-07 13:02 42.57248 -107.09598 12921 ft 189 kts 75°
2026-05-07 13:02 42.57427 -107.07834 12920 ft 189 kts 75°
2026-05-07 13:03 42.57608 -107.06068 12920 ft 189 kts 75°
2026-05-07 13:03 42.57787 -107.04305 12920 ft 189 kts 75°
2026-05-07 13:03 42.57965 -107.02542 12921 ft 189 kts 75°
2026-05-07 13:03 42.58144 -107.00778 12920 ft 189 kts 75°
2026-05-07 13:04 42.58322 -106.99017 12924 ft 188 kts 75°
2026-05-07 13:04 42.58499 -106.97276 12920 ft 188 kts 75°
2026-05-07 13:04 42.58676 -106.95517 12920 ft 188 kts 75°
2026-05-07 13:04 42.58853 -106.93752 12921 ft 189 kts 75°
2026-05-07 13:05 42.59032 -106.91979 12917 ft 189 kts 75°
2026-05-07 13:05 42.59209 -106.90210 12907 ft 189 kts 75°
2026-05-07 13:05 42.59386 -106.88445 12907 ft 189 kts 75°
2026-05-07 13:05 42.59563 -106.86675 12907 ft 189 kts 75°
2026-05-07 13:06 42.59740 -106.84905 12908 ft 189 kts 75°
2026-05-07 13:06 42.59915 -106.83142 12908 ft 188 kts 75°
2026-05-07 13:06 42.60091 -106.81381 12908 ft 188 kts 75°
2026-05-07 13:06 42.60266 -106.79627 12911 ft 188 kts 75°
2026-05-07 13:07 42.60440 -106.77871 12902 ft 187 kts 75°
2026-05-07 13:07 42.60716 -106.76178 12893 ft 180 kts 62°
2026-05-07 13:07 42.61408 -106.74931 12900 ft 163 kts 27°
2026-05-07 13:07 42.62349 -106.74096 12898 ft 162 kts 22°
2026-05-07 13:08 42.63293 -106.73242 12903 ft 164 kts 25°
2026-05-07 13:08 42.64230 -106.72349 12904 ft 164 kts 24°
2026-05-07 13:08 42.65191 -106.71529 12904 ft 163 kts 22°
2026-05-07 13:08 42.66158 -106.70722 12906 ft 163 kts 22°
2026-05-07 13:09 42.67129 -106.69911 12908 ft 164 kts 22°
2026-05-07 13:09 42.68126 -106.69081 12690 ft 169 kts 22°
2026-05-07 13:09 42.69128 -106.68243 12490 ft 169 kts 22°
2026-05-07 13:09 42.70131 -106.67408 12286 ft 169 kts 22°
2026-05-07 13:10 42.71006 -106.66273 12082 ft 181 kts 47°
2026-05-07 13:10 42.71769 -106.64930 11876 ft 176 kts 34°
2026-05-07 13:10 42.72719 -106.63920 11673 ft 171 kts 26°
2026-05-07 13:10 42.73676 -106.63007 11474 ft 170 kts 26°
2026-05-07 13:11 42.74647 -106.62058 11277 ft 170 kts 27°
2026-05-07 13:11 42.75591 -106.61125 11084 ft 170 kts 27°
2026-05-07 13:11 42.76536 -106.60183 11004 ft 164 kts 26°
2026-05-07 13:11 42.77438 -106.59293 10980 ft 158 kts 25°
2026-05-07 13:12 42.78329 -106.58419 10981 ft 160 kts 26°
2026-05-07 13:12 42.79231 -106.57521 10994 ft 161 kts 26°
2026-05-07 13:12 42.80143 -106.56612 10998 ft 163 kts 26°
2026-05-07 13:12 42.81062 -106.55696 11002 ft 164 kts 26°
2026-05-07 13:13 42.81988 -106.54774 11019 ft 165 kts 27°
2026-05-07 13:13 42.82915 -106.53850 11011 ft 165 kts 27°
2026-05-07 13:13 42.83846 -106.52925 11004 ft 166 kts 27°
2026-05-07 13:13 42.84778 -106.51998 11008 ft 165 kts 27°
2026-05-07 13:14 42.85705 -106.51066 11004 ft 166 kts 28°
2026-05-07 13:14 42.86628 -106.50132 10998 ft 165 kts 27°
2026-05-07 13:14 42.87554 -106.49210 10995 ft 165 kts 27°
2026-05-07 13:14 42.88482 -106.48288 10993 ft 164 kts 27°
2026-05-07 13:15 42.89397 -106.47376 11009 ft 163 kts 27°
2026-05-07 13:15 42.90311 -106.46482 10874 ft 158 kts 26°
2026-05-07 13:15 42.91185 -106.45623 10740 ft 157 kts 27°
2026-05-07 13:15 42.92084 -106.44728 10628 ft 163 kts 28°
2026-05-07 13:16 42.93009 -106.43790 10520 ft 167 kts 28°
2026-05-07 13:16 42.93959 -106.42836 10408 ft 171 kts 28°
2026-05-07 13:16 42.94923 -106.41869 10248 ft 173 kts 28°
2026-05-07 13:16 42.95897 -106.40893 10086 ft 174 kts 28°
2026-05-07 13:17 42.96878 -106.39907 9918 ft 174 kts 29°
2026-05-07 13:17 42.97852 -106.38926 9771 ft 173 kts 28°
2026-05-07 13:17 42.98806 -106.37973 9720 ft 167 kts 28°
2026-05-07 13:17 42.99753 -106.37033 9710 ft 170 kts 28°
2026-05-07 13:18 43.00713 -106.36076 9706 ft 172 kts 28°
2026-05-07 13:18 43.01684 -106.35108 9709 ft 174 kts 28°
2026-05-07 13:18 43.02667 -106.34124 9705 ft 175 kts 28°
2026-05-07 13:18 43.03633 -106.33138 9690 ft 175 kts 28°
2026-05-07 13:19 43.04604 -106.32144 9681 ft 174 kts 28°
2026-05-07 13:19 43.05554 -106.31171 9674 ft 167 kts 29°
2026-05-07 13:19 43.06480 -106.30258 9660 ft 160 kts 28°
2026-05-07 13:19 43.07369 -106.29370 9655 ft 156 kts 28°
2026-05-07 13:20 43.08247 -106.28499 9591 ft 158 kts 28°
2026-05-07 13:20 43.09149 -106.27600 9458 ft 163 kts 28°
2026-05-07 13:20 43.10084 -106.26687 9325 ft 166 kts 28°
2026-05-07 13:20 43.11110 -106.26070 9169 ft 157 kts 358°
2026-05-07 13:21 43.12073 -106.26476 9024 ft 146 kts 318°
2026-05-07 13:21 43.12851 -106.27368 8851 ft 147 kts 320°
2026-05-07 13:21 43.13781 -106.27953 8668 ft 153 kts 349°
2026-05-07 13:21 43.14780 -106.27441 8485 ft 164 kts 38°
2026-05-07 13:22 43.15212 -106.25991 8305 ft 172 kts 90°
2026-05-07 13:22 43.14774 -106.24529 8132 ft 166 kts 141°
2026-05-07 13:22 43.13808 -106.23835 7980 ft 152 kts 181°
2026-05-07 13:22 43.12827 -106.24054 7803 ft 138 kts 217°
2026-05-07 13:23 43.12069 -106.24811 7648 ft 133 kts 225°
2026-05-07 13:23 43.11229 -106.25268 7622 ft 138 kts 187°
2026-05-07 13:23 43.10305 -106.25190 7632 ft 123 kts 209°
2026-05-07 13:23 43.09530 -106.25588 7636 ft 115 kts 218°
2026-05-07 13:24 43.08862 -106.26159 7642 ft 112 kts 221°
2026-05-07 13:24 43.08209 -106.26737 7646 ft 111 kts 221°
2026-05-07 13:24 43.07569 -106.27340 7651 ft 112 kts 230°
2026-05-07 13:24 43.07017 -106.28153 7663 ft 122 kts 235°
2026-05-07 13:25 43.06446 -106.29043 7596 ft 126 kts 235°
2026-05-07 13:25 43.05873 -106.29953 7508 ft 126 kts 235°
2026-05-07 13:25 43.05323 -106.30796 7443 ft 114 kts 235°
2026-05-07 13:25 43.04804 -106.31576 7357 ft 108 kts 234°
2026-05-07 13:26 43.04240 -106.32263 7265 ft 110 kts 226°
2026-05-07 13:26 43.03635 -106.32929 7170 ft 114 kts 225°
2026-05-07 13:26 43.02999 -106.33584 7079 ft 115 kts 223°
2026-05-07 13:26 43.02362 -106.34218 7018 ft 110 kts 224°
2026-05-07 13:27 43.01752 -106.34816 7015 ft 106 kts 223°
2026-05-07 13:27 43.01158 -106.35394 7015 ft 105 kts 219°
2026-05-07 13:27 43.00565 -106.35973 7015 ft 105 kts 219°
2026-05-07 13:27 42.99969 -106.36553 7022 ft 105 kts 219°
2026-05-07 13:28 42.99369 -106.37133 7024 ft 106 kts 218°
2026-05-07 13:28 42.98767 -106.37697 7028 ft 105 kts 217°
2026-05-07 13:28 42.98168 -106.38272 6982 ft 107 kts 219°
2026-05-07 13:28 42.97569 -106.38863 6865 ft 107 kts 220°
2026-05-07 13:29 42.96964 -106.39449 6747 ft 103 kts 219°
2026-05-07 13:29 42.96411 -106.39976 6643 ft 94 kts 217°
2026-05-07 13:29 42.95885 -106.40485 6524 ft 92 kts 218°
2026-05-07 13:29 42.95369 -106.40989 6398 ft 90 kts 217°
2026-05-07 13:30 42.94845 -106.41474 6232 ft 94 kts 216°
2026-05-07 13:30 42.94310 -106.41890 6142 ft 81 kts 211°
2026-05-07 13:30 42.93826 -106.42247 6031 ft 77 kts 212°
2026-05-07 13:30 42.93329 -106.42559 5852 ft 80 kts 212°
2026-05-07 13:31 42.92850 -106.42927 5768 ft 79 kts 222°
2026-05-07 13:31 42.92452 -106.43395 5662 ft 74 kts 228°
2026-05-07 13:31 42.92085 -106.43889 5617 ft 74 kts 232°
2026-05-07 13:31 42.91715 -106.44383 5523 ft 73 kts 237°
2026-05-07 13:32 42.91347 -106.44882 5374 ft 76 kts 231°
2026-05-07 13:32 42.90997 -106.45321 5343 ft 58 kts 232°
2026-05-07 13:32 42.90785 -106.45621 5340 ft 34 kts 225°
2026-05-07 13:32 42.90644 -106.45783 5342 ft 18 kts 187°
2026-05-07 13:33 42.90563 -106.45704 5342 ft 0 kts 128°
2026-05-07 13:34 42.90562 -106.45703 5342 ft 1 kts 127°
2026-05-07 13:34 42.90427 -106.45804 5343 ft 21 kts 224°
2026-05-07 13:34 42.90316 -106.45948 5343 ft 16 kts 207°
2026-05-07 13:35 42.90209 -106.45914 5340 ft 13 kts 186°
2026-05-07 13:35 42.90170 -106.45947 5343 ft 8 kts 155°
2026-05-07 13:35 42.90166 -106.45941 5340 ft 0 kts 130°